Location: La Maure
(44.3667°N, 6.6167°E)
Time: 15:37:09
(UTC+00:00)

Daily predictions for brighter satellites

Satellite Brightness Start Highest point End
(mag) Time Altitude Azimuth Time Altitude Azimuth Time Altitude Azimuth
BREEZE-M DEB (TANK) 3.9 17:58:51 10° WNW 18:02:35 59° NNE 18:16:06 10° E
H-2A R/B 2.8 18:07:23 10° S 18:11:42 77° WSW 18:16:12 10° NNW
CZ-4 R/B 1.2 18:10:12 10° SSE 18:14:02 74° ENE 18:17:53 10° N
Cosmos 1340 4.4 18:12:11 10° NNE 18:14:35 16° ENE 18:16:58 10° ESE
Cosmos 1733 Rocket 3.8 18:10:51 10° SSE 18:14:38 30° E 18:18:25 10° NNE
Cosmos 1544 4.4 18:11:34 10° SSW 18:15:02 45° WNW 18:18:32 10° N
Cosmos 2278 Rocket 2.3 18:09:55 10° S 18:15:27 57° ESE 18:21:01 10° NNE
Cosmos 1709 Rocket 4.0 18:10:20 10° S 18:16:34 70° E 18:22:45 10° NNE
Genesis I 3.3 18:13:46 10° SW 18:17:39 83° NW 18:21:39 10° NE
H-2A R/B 1.9 18:17:41 10° NNE 18:22:00 75° ESE 18:26:10 10° S
deb Kosmos-1763 4.3 18:20:42 10° NNW 18:24:09 68° WSW 18:27:34 10° SSE
Cosmos 1356 Rocket 3.7 18:22:44 10° S 18:26:46 47° E 18:30:53 10° NNE
Cosmos 2208 Rocket 4.0 18:22:43 10° NNW 18:27:55 63° ENE 18:33:08 10° SSE
Cosmos 841 Rocket 4.1 18:23:29 10° NNW 18:28:41 62° WSW 18:33:49 10° S
IRS-1C Rocket 4.1 18:24:31 10° SSE 18:29:46 79° ENE 18:35:03 10° NNW
DMSP B5D2-2 4.1 18:25:12 10° NNE 18:30:28 65° ESE 18:35:42 10° S
Cosmos 1814 Rocket 4.1 18:25:11 10° NNW 18:30:35 88° ENE 18:35:55 10° SSE
SeaSat 1 2.6 18:26:54 10° SE 18:31:44 59° ENE 18:36:36 10° NNW
COSMOS 2455 4.2 18:27:29 10° NNW 18:32:14 23° NE 18:36:25 12° E
Okean O Rocket 3.9 18:29:51 10° SSW 18:33:39 28° W 18:37:27 10° NW
ARGOS 4.0 18:28:31 10° S 18:33:45 55° W 18:39:02 10° NNW
ERBS 2.2 18:36:55 10° SW 18:40:09 60° SE 18:43:24 10° NE
Cosmos 1743 3.9 18:37:06 10° SSW 18:40:48 47° WNW 18:44:34 10° N
Cosmos 1707 3.7 18:38:29 10° NNE 18:41:52 27° ENE 18:44:05 17° ESE
Cosmos 1975 3.1 18:38:28 10° SSE 18:42:15 44° E 18:46:03 10° NNE
CSL-04 Debris 4.1 18:37:09 10° SSE 18:42:32 71° ENE 18:47:55 10° N
OBJECT-B 1.5 18:41:39 15° SE 18:43:50 34° ENE 18:46:47 10° N
Cosmos 1943 Rocket 3.3 18:40:08 10° SE 18:44:05 20° E 18:48:04 10° NE
Cosmos 968 Rocket 3.5 18:39:20 10° S 18:44:26 57° ESE 18:49:36 10° NNE
USA 215 3.7 18:38:29 10° SE 18:44:57 61° SW 18:51:28 10° NW
USA 305 3.8 18:43:38 10° WSW 18:47:42 46° NNW 18:51:48 10° NE
Lacrosse 5 rocket 3.7 18:45:51 10° NW 18:48:58 18° N 18:52:01 10° NE
ISS -2.8 18:48:34 10° SSW 18:51:31 28° SE 18:52:23 25° ESE
CZ-2C R/B 4.2 18:48:04 10° N 18:53:08 41° WNW 18:58:16 10° SW
Cosmos 921 Rocket 2.9 18:49:46 10° NNW 18:54:09 81° ENE 18:58:25 10° SSE
Cosmos 1486 Rocket 4.2 18:49:19 10° S 18:54:18 47° ESE 18:59:20 10° NNE
SL-4 R/B 2.3 18:54:54 10° WNW 18:58:13 47° SW 19:00:24 20° SSE
USA 307 3.9 18:54:22 10° W 18:58:25 44° NNW 19:02:30 10° NE
Cosmos 1908 Rocket 4.1 18:57:53 10° SSE 19:01:58 36° E 19:06:05 10° NNE
Meteor 2-9 Rocket 4.3 18:56:26 10° S 19:02:16 89° WNW 19:08:10 10° N
Nadezhda 3 Rocket 4.4 18:57:56 10° N 19:03:41 39° ENE 19:07:20 21° SE
Cosmos 1842 3.6 19:01:07 10° NNW 19:05:02 68° W 19:08:56 10° S
USA 281 3.8 19:00:11 10° NE 19:06:00 32° ESE 19:11:46 10° SSE
SJ-6B 2.9 19:04:20 19° SSE 19:07:07 60° ENE 19:11:12 10° N
Cosmos 1400 Rocket 3.4 19:07:16 26° SE 19:08:50 36° E 19:12:36 10° NNE
Cosmos 2221 Rocket 4.2 19:08:09 10° NNW 19:12:31 56° W 19:16:49 10° S
Cosmos 1378 Rocket 3.4 19:09:22 10° N 19:13:46 76° E 19:17:05 17° SSE
USA 306 4.3 19:11:24 10° W 19:15:17 35° NNW 19:19:12 10° NE
ATLAS CENTAUR R/B 3.2 19:12:22 10° N 19:15:54 21° NE 19:17:09 19° ENE
USA 308 4.3 19:13:32 10° W 19:17:28 36° NNW 19:21:18 11° NE
Cosmos 1674 3.6 19:15:07 10° NNE 19:18:01 30° ENE 19:18:01 30° ENE
CZ-3 Stage 3 4.3 19:01:09 10° SW 19:23:36 29° S 19:27:42 21° SE
Okean-O 4.2 19:19:36 10° SSW 19:23:40 35° W 19:27:45 10° NNW
Inspiration4 2.6 19:19:27 10° SW 19:23:42 72° SE 19:25:24 35° ENE
COSMOS 2406 4.3 19:18:28 10° NW 19:23:53 43° WSW 19:29:15 10° S
Cosmos 1833 Rocket 4.2 19:22:26 10° NW 19:27:25 33° WSW 19:32:24 10° SSW
Cosmos 1674 Rocket 3.8 19:23:36 10° NNW 19:27:58 66° W 19:31:38 14° S
CZ-4B R/B 3.8 19:27:30 10° NNW 19:29:56 22° WNW 19:32:23 10° WSW
USA 186 2.6 19:30:09 33° SW 19:30:45 38° W 19:33:25 10° NNW
Cosmos 2074 Rocket 4.0 19:24:44 10° S 19:30:58 84° W 19:37:17 10° N
In-Cosmos 22 3.9 19:25:43 10° N 19:31:03 85° E 19:34:23 23° SSE
Lacrosse 4 Rocket 3.5 19:31:00 10° WSW 19:34:28 27° NW 19:37:57 10° N
USA 276 4.2 19:32:58 10° SW 19:34:01 19° SSW 19:34:01 19° SSW
SPOT 3 Rocket 4.2 19:36:01 33° ENE 19:36:21 34° ENE 19:40:57 10° N
Cosmos 2082 Rocket 2.7 19:33:07 10° NNW 19:38:43 57° WSW 19:42:45 19° S
Resurs 01 Rocket 2.0 19:40:22 43° ENE 19:40:22 43° ENE 19:44:26 10° N
Okean 2 4.3 19:39:41 10° NNW 19:43:36 46° W 19:46:18 18° SSW
Cosmos 1340 4.1 19:46:48 10° NNW 19:50:18 36° W 19:52:07 22° SW
Helios 1A Rocket 3.1 19:49:39 51° SSW 19:50:33 70° WSW 19:54:38 10° NNW
Cosmos 1782 Rocket 3.6 19:52:42 62° NE 19:52:42 62° NE 19:56:39 10° NNE
Ariane Rocket 2.9 19:53:09 54° SSE 19:54:20 85° ENE 19:59:26 10° NNW
Terra 4.1 19:56:16 12° NE 19:56:16 12° NE 19:57:01 10° NNE
IRS-1A Rocket 4.3 19:57:02 38° S 19:59:24 81° WSW 20:05:18 10° NNW
Cosmos 2278 Rocket 4.4 19:55:14 10° WSW 19:59:54 26° NW 20:04:37 10° N
Cosmos 2297 3.7 19:56:40 10° SSW 20:02:21 85° WNW 20:08:06 10° NNE
Resurs 1-3 4.2 20:06:22 46° SW 20:07:10 54° W 20:11:29 10° NNW
Cosmos 2369 Rocket 3.9 20:12:18 20° NE 20:12:18 20° NE 20:14:01 10° NE
Cosmos 1626 3.6 20:05:23 10° N 20:07:23 30° N 20:07:23 30° N
Cosmos 1346 Rocket 3.7 20:05:42 10° N 20:08:28 43° N 20:08:28 43° N
Cosmos 1503 Rocket 4.3 20:07:35 10° SSW 20:12:46 63° WNW 20:17:56 10° NNE
SPOT 1/Viking Rocket 3.7 20:15:41 59° NE 20:15:41 59° NE 20:20:14 10° N
Landsat 7 3.8 20:16:04 79° NW 20:16:04 79° NW 20:20:37 10° NNW
OBJECT-B 3.9 20:14:41 10° WSW 20:16:04 12° W 20:17:27 10° WNW
Cosmos 962 Rocket 4.3 20:16:03 51° S 20:17:47 87° E 20:24:00 10° N
IGS 5A 4.2 20:19:04 52° WNW 20:19:04 52° WNW 20:22:31 10° NNW
COSMOS 2455 2.7 20:12:49 10° NNW 20:18:52 81° WSW 20:19:33 70° S
Cosmos 1975 Rocket 3.7 20:18:36 10° NNW 20:22:05 53° NNW 20:22:05 53° NNW
Cosmos 1354 Rocket 4.4 20:19:11 10° SSW 20:24:23 60° WNW 20:29:36 10° NNE
Cosmos 1943 Rocket 2.6 20:21:49 10° SW 20:27:17 61° WNW 20:32:52 10° NNE
ISS -0.8 20:24:58 10° W 20:25:27 13° W 20:25:27 13° W
Lacrosse 5 rocket 2.9 20:24:58 10° NW 20:28:07 32° N 20:28:07 32° N
SPOT 5 4.2 20:43:03 35° NNE 20:43:03 35° NNE 20:46:24 10° N
USA 281 3.9 20:44:20 10° NNE 20:50:41 53° WNW 20:57:00 10° SW
SL-8 Rocket 4.1 20:52:19 74° WNW 20:52:19 74° WNW 20:58:26 10° N
ATLAS CENTAUR R/B 3.2 20:50:34 10° NW 20:53:17 35° NW 20:53:17 35° NW
Resurs 01 Rocket 4.1 21:17:56 18° WNW 21:17:56 18° WNW 21:20:05 10° NW
SJ 16-02 4.3 21:27:03 11° N 21:27:03 11° N 21:27:14 10° N
Cosmos 2297 Rocket 4.4 21:26:03 10° N 21:28:14 16° NNE 21:28:14 16° NNE
Terra 4.1 21:35:09 20° NNW 21:35:09 20° NNW 21:36:40 10° NNW
Cosmos 2227 Rocket 4.5 21:46:47 10° N 21:48:50 16° NNE 21:48:50 16° NNE
Cosmos 2369 Rocket 4.0 21:54:02 27° NNW 21:54:02 27° NNW 21:57:46 10° N
CENTAUR R/B 4.4 22:53:55 25° NNE 22:53:55 25° NNE 22:56:54 10° NNE
